Simultaneous Nadir Overpasses (SNOs) Predictions

Prediction of SNOs between AQUA and METOP-C Satellite Orbit:

Table of predicted SNOs for the next 14.0 days since TLE Epoch: 4/12/2025
Index Date (AQUA) Time (AQUA) Lat,Lon (AQUA) SZA (AQUA ) Date (METOP-C) Time (METOP-C) Lat,Lon (METOP-C) SZA (METOP-C ) Distance(km) Time Diff (sec)
1 04/13/2025 05:27:00 76.42, 100.08 67.21 04/13/2025 05:26:45 76.43, 99.94 67.21 3.55 15
2 04/13/2025 06:16:19 -76.49, -92.48 112.75 04/13/2025 06:17:25 -76.50, -92.44 112.72 2.18 66
3 04/15/2025 17:26:14 -76.15, 101.21 113.96 04/15/2025 17:25:05 -76.12, 99.30 114.00 51.17 69
4 04/15/2025 18:15:40 76.48, -92.22 66.35 04/15/2025 18:15:37 76.47, -92.12 66.35 2.63 3
5 04/15/2025 19:05:03 -76.73, 74.56 113.41 04/15/2025 19:06:12 -76.77, 76.35 113.35 45.84 69
6 04/18/2025 06:14:57 -76.44, -91.85 114.56 04/18/2025 06:13:51 -76.42, -91.85 114.58 1.83 66
7 04/18/2025 07:04:17 76.48, 75.67 65.47 04/18/2025 07:04:29 76.50, 75.77 65.49 3.35 12
8 04/20/2025 19:03:32 -76.44, 76.07 115.43 04/20/2025 19:02:43 -76.44, 76.00 115.43 1.69 49
9 04/20/2025 19:52:52 76.49,-116.43 64.61 04/20/2025 19:53:22 76.48,-116.54 64.60 3.27 30
10 04/23/2025 07:52:05 -76.49,-116.17 116.24 04/23/2025 07:51:33 -76.50,-116.02 116.23 3.80 32
11 04/23/2025 08:41:25 76.54, 51.33 63.81 04/23/2025 08:42:12 76.53, 51.43 63.80 2.84 47
12 04/25/2025 20:40:36 -76.48, 51.78 117.07 04/25/2025 20:40:25 -76.49, 51.74 117.06 1.52 11



Historial Predications of SNOs between AQUA and METOP-C
